TV
NORAD ID: 33275
Int'l Code: 2008-038B
Perigee: 35,783.9 km
Apogee: 35,802.7 km
Inclination: 0.0°
Period: 1,436.1 min
Semi major axis: 42,164.3 km
Launch date: August 14, 2008
Source: United States (US)
Comments: AMC 21, also known as Americom 21, carries 24 Ku-band transponders and two reflector antennas to provide television services to the United States, Canada, Mexico and Caribbean countries, after parking over 125° W longitude.
Two Line Element Set (TLE):
1 33275U 08038B 10249.39660385 .00000019 00000-0 00000+0 0 3965
2 33275 000.0354 267.8210 0002230 259.8109 195.6292 01.00273407 7691
More details about AMC-21